Regional Weather Roundup
Issued by NWS

Home | Current Version | Previous Version | Graphics & Text | Print | Product List | Glossary On
Versions: 1 2 3 4 5 6 7 8 9 10 11 12 13 14 15 16 17 18 19 20 21 22 23 24 25 26 27 28 29 30 31 32 33 34 35 36 37 38 39 40 41 42 43 44 45 46 47 48 49 50
000
ASUS45 KBOU 220807
RWRCO

WEATHER ROUNDUP FOR COLORADO
NATIONAL WEATHER SERVICE DENVER/BOULDER CO
200 AM MDT FRI MAY 22 2015

NOTE: "FAIR" INDICATES FEW OR NO CLOUDS BELOW 12000 FEET WITH NO
SIGNIFICANT WEATHER AND/OR OBSTRUCTIONS TO VISIBILITY.

COZ001>005-013-030-031-220900-
...NORTHWEST COLORADO...

CITY           SKY/WX    TMP DP  RH WIND       PRES   REMARKS
CRAIG          CLOUDY    49  41  74 CALM      29.97F
HAYDEN         CLOUDY    46  37  71 NE8       29.99F
MEEKER         CLOUDY    48  39  71 CALM      29.98S
MOUNT WERNER   NOT AVBL
STEAMBOAT SPGS CLOUDY    43  40  89 E8        30.04R
WALDEN         CLOUDY    41  36  81 CALM      30.05F
$$

COZ006>008-011-220900-
...WEST CENTRAL VALLEYS...

CITY           SKY/WX    TMP DP  RH WIND       PRES   REMARKS
GRAND JUNCTION CLOUDY    52  44  74 E22G31    29.95R
MONTROSE       CLOUDY    52  39  61 S7        30.04R
EAGLE          CLOUDY    46  46 100 SE5       30.04S
RIFLE          CLOUDY    53  43  68 S6        29.97S
DELTA          LGT RAIN  51  47  84 NW6       30.03R
NUCLA          LGT RAIN  46  43  87 E5        30.05F
$$

COZ017>023-064>068-220900-
...SOUTHWEST COLORADO...

CITY           SKY/WX    TMP DP  RH WIND       PRES   REMARKS
DURANGO        CLOUDY    43  41  93 E8        30.08S
CORTEZ         CLOUDY    48  42  80 CALM      30.02R
PAGOSA SPRINGS MIX PCPN  37  37 100 CALM      30.16F
TELLURIDE      CLOUDY    36  36  99 SE6       30.14F
WOLF CREEK PAS NOT AVBL
$$

COZ009-010-012-014-032>034-037-058>063-220900-
...CENTRAL COLORADO...

CITY           SKY/WX    TMP DP  RH WIND       PRES   REMARKS
ASPEN          LGT RAIN  43  41  93 CALM      30.03F
BUENA VISTA    RAIN      40  38  92 SW6       30.10F
COPPER MTN     CLOUDY    34  28  80 S6        30.18F WCI  29
BERTHOUD PASS  HAZE      27  19  74 SE22G29   30.20F VSB<1/4 WCI  12
COTTONWOOD PAS SNOW      36  34  93 CALM      30.14F VSB 1/2
GUNNISON       CLOUDY    46  36  66 E8        30.06S
KREMMLING      LGT RAIN  43  37  81 W7        30.06S
LEADVILLE      FOG       33  33 100 S9        30.11F VSB 1/4 WCI  25
SALIDA         CLOUDY    43  41  95 CALM      30.16F
SUNLIGHT       SNOW      34  34 100 CALM      30.18R VSB 1/2
WILKERSON PASS SNOW      32  30  93 S8G16     30.20F VSB 1/4 WCI  25
$$

COZ069>075-220900-
...SAN LUIS VALLEY/SANGRE DE CRISTO MOUNTAINS...

CITY           SKY/WX    TMP DP  RH WIND       PRES   REMARKS
ALAMOSA        LGT RAIN  41  37  86 S21G26    30.06F
LA VETA PASS   LGT SNOW N/A N/A N/A MISG      30.12F VSB 3/4
SAGUACHE       DRIZZLE   43  41  93 E6        30.08F
$$

COZ035-036-038>040-220900-
...NORTHERN COLORADO FRONT RANGE...

CITY           SKY/WX    TMP DP  RH WIND       PRES   REMARKS
DENVER INTL AP CLOUDY    47  44  90 SE16      30.05F
DMNS CITY PARK   N/A     49  44  83 E9        30.03F
AURORA         CLOUDY    46  46  97 SE8       30.06F
FRONT RANGE AP CLOUDY    48  45  87 SE13G20   30.07F
ERIE MUNI ARPT CLOUDY    50  46  85 SE8       30.04F
BOULDER MUN AP CLOUDY    48  46  93 CALM      30.03F
CENTENNIAL     CLOUDY    47  43  86 SE8       30.05F
BROOMFIELD     CLOUDY    48  45  87 E3        30.05F
FORT COLLINS   CLOUDY    48  45  87 SE7       30.06F
LONGMONT       DRIZZLE   51  47  86 CALM      30.06F
$$

COZ041-046-047-076>085-087-088-220900-
...PIKES PEAK/PALMER DIVIDE AND SOUTHERN FOOTHILLS...

CITY           SKY/WX    TMP DP  RH WIND       PRES   REMARKS
COLO. SPRINGS  RAIN      44  44 100 CALM      30.07F FOG
A. F. ACADEMY  LGT RAIN  42  42 100 S3        30.07F
ELLICOTT       NOT AVBL
FALCON         LGT RAIN  42  42 100 SE15      30.09F VSB 1/4
FORT CARSON    RAIN      45 N/A N/A NW7       30.05F
LIMON          CLOUDY    44  43  96 SE16      30.09F
MONUMENT HILL  NOT AVBL
TRINIDAD       CLOUDY    46  42  86 NW8       30.04F
$$

COZ042>045-048>051-090-091-220900-
...NORTHEAST COLORADO...

CITY           SKY/WX    TMP DP  RH WIND       PRES   REMARKS
GREELEY ARPT   CLOUDY    48  45  87 SE14      30.07F
AKRON          CLOUDY    46  45  96 SE17      30.11F
BURLINGTON     CLOUDY    48  44  86 SE13      30.13F
WRAY           CLOUDY    51  45  80 SE9       30.14F
STERLING       CLOUDY    50  45  81 S12       30.10F
HOLYOKE        NOT AVBL
FORT MORGAN    CLOUDY    47  44  87 SE14      30.09F
$$

COZ086-089-092>099-220900-
...SOUTHEAST COLORADO...

CITY           SKY/WX    TMP DP  RH WIND       PRES   REMARKS
PUEBLO         CLOUDY    50  48  93 E8        30.02F
LA JUNTA       LGT RAIN  49  47  93 E15       30.02F
LAMAR          LGT RAIN  48  47  96 E13       30.07F FOG
SPRINGFIELD      N/A     46  46 100 SE16      30.06F
$$


USA.gov is the U.S. government's official web portal to all federal, state and local government web resources and services.